Tracking 28911 objects as of 22-May-2024
HD Live streaming from Space Station
objects crossing your sky now

HINCUBE

Track HINCUBE now!
10-day predictions
HINCUBE is classified as:


NORAD ID: 39445
Int'l Code: 2013-066AF
Perigee: 568.0 km
Apogee: 633.5 km
Inclination: 97.7 °
Period: 96.6 minutes
Semi major axis: 6971 km
RCS: Unknown
Launch date: November 21, 2013
Source: Norway (NOR)
Launch site: Orenburg, Russia (OREN)

Uplink (MHz):
Downlink (MHz): 437.305
Beacon (MHz):
Mode:
Call sign:
Status: Inactive

Your satellite tracking list
Your tracking list is empty




NASA's NSSDC Master Catalog

Two Line Element Set (TLE):
1 39445U 13066AF  24142.83043012  .00010086  00000-0  99395-3 0  9998
2 39445  97.7189 102.1210 0046975 230.2553 129.4522 14.91393037566109
Source of the keplerian elements: AFSPC